Location: Erlenbrunn
(49.1717°N, 7.6142°E)
Time: 09:17:37
(UTC+00:00)

Cosmos 2327 Rocket - Pass Details

Date: 25 November 2020
Orbit: 945 x 1007 km, 83.0° (Epoch: 25 January)

Event Time Altitude Azimuth Distance (km) Brightness Sun altitude
Rises 16:21:48 0° 351° (N) 3,635 7.3 -7.2°
Reaches altitude 10° 16:24:18 10° 354° (N) 2,691 6.6 -7.6°
Maximum altitude 16:30:27 72° 79° (ENE) 1,011 4.4 -8.5°
Drops below altitude 10° 16:36:39 10° 164° (SSE) 2,711 6.9 -9.4°
Sets 16:39:10 0° 166° (SSE) 3,664 7.6 -9.8°
